Monroe, MI

11:55 AM EDT on April 19, 2018 (GMT -0400)
Custer

Weather History for KTTF - January, 2013

Change the Weather History Date:

Thursday, January 3, 2013

  Actual Average Record
Temperature  
Mean Temperature 22 °F -  
Max Temperature 30 °F 34 °F 60 °F (2004)
Min Temperature 14 °F 20 °F -14 °F (2014)
Degree Days  
Heating Degree Days 43    
Moisture  
Dew Point 18 °F    
Average Humidity 79    
Maximum Humidity 93    
Minimum Humidity 63    
Precipitation  
Precipitation 0.00 in - - ()
Sea Level Pressure  
Sea Level Pressure 30.12 in    
Wind  
Wind Speed 8 mph (SW)    
Max Wind Speed 17 mph    
Max Gust Speed 23 mph    
Visibility 8 miles    
Events      
Averages and records for this station are not official NWS values.
T = Trace of Precipitation, MM = Missing Value Source: NWS Daily Summary

Daily Weather History Graph

Daily Weather History Graph

Search for Another Location

Airport or City:

Astronomy

Jan. 03, 2013 Rise Set
Actual Time 8:01 AM EST 5:15 PM EST
Civil Twilight 7:30 AM EST 5:46 PM EST
Nautical Twilight 6:55 AM EST 6:21 PM EST
Astronomical Twilight 6:21 AM EST 6:55 PM EST
Moon 11:56 PM EST (1/3) 11:06 AM EST (1/3)
Length of Visible Light 10h 16m
Length of Day
9h 13m
Waning Gibbous, 65% of the Moon is Illuminated
Jan 3
Waning Gibbous
Jan 4
Last Quarter
Jan 11
New
Jan 18
First Quarter
Jan 26
Full

Hourly Weather History & Observations

Time (EST) Temp. Windchill Dew Point Humidity Pressure Visibility Wind Dir Wind Speed Gust Speed Precip Events Conditions
12:11 AM 23.0 °F 14.7 °F 17.6 °F 80% 30.16 in 10.0 mi SSW 6.9 mph - N/A   Overcast
12:31 AM 21.2 °F 13.6 °F 17.6 °F 86% 30.15 in 10.0 mi SW 5.8 mph - N/A   Overcast
12:51 AM 21.2 °F 14.9 °F 15.8 °F 80% 30.15 in 10.0 mi SW 4.6 mph - N/A   Mostly Cloudy
1:11 AM 19.4 °F 11.5 °F 15.8 °F 86% 30.15 in 10.0 mi SW 5.8 mph - N/A   Scattered Clouds
1:32 AM 19.4 °F 14.3 °F 14.0 °F 80% 30.16 in 10.0 mi SW 3.5 mph - N/A   Clear
1:52 AM 17.6 °F - 14.0 °F 86% 30.15 in 10.0 mi Calm Calm - N/A   Clear
2:12 AM 17.6 °F - 14.0 °F 86% 30.15 in 10.0 mi Calm Calm - N/A   Clear
2:32 AM 17.6 °F 12.3 °F 12.2 °F 79% 30.15 in 10.0 mi SW 3.5 mph - N/A   Clear
2:52 AM 17.6 °F 12.3 °F 10.4 °F 73% 30.15 in 10.0 mi SSW 3.5 mph - N/A   Clear
3:12 AM 15.8 °F 8.6 °F 8.6 °F 73% 30.15 in 10.0 mi SW 4.6 mph - N/A   Clear
3:32 AM 15.8 °F 10.2 °F 8.6 °F 73% 30.14 in 10.0 mi SSW 3.5 mph - N/A   Scattered Clouds
3:52 AM 15.8 °F 10.2 °F 8.6 °F 73% 30.14 in 10.0 mi South 3.5 mph - N/A   Scattered Clouds
4:12 AM 15.8 °F - 8.6 °F 73% 30.13 in 10.0 mi Calm Calm - N/A   Scattered Clouds
4:32 AM 15.8 °F 8.6 °F 8.6 °F 73% 30.12 in 10.0 mi SSW 4.6 mph - N/A   Scattered Clouds
4:53 AM 15.8 °F 10.2 °F 6.8 °F 68% 30.12 in 10.0 mi SSW 3.5 mph - N/A   Clear
5:13 AM 14.0 °F 8.2 °F 6.8 °F 73% 30.12 in 10.0 mi SW 3.5 mph - N/A   Clear
5:33 AM 15.8 °F 8.6 °F 6.8 °F 68% 30.11 in 10.0 mi SSW 4.6 mph - N/A   Mostly Cloudy
5:53 AM 14.0 °F 8.2 °F 6.8 °F 73% 30.11 in 10.0 mi SW 3.5 mph - N/A   Scattered Clouds
6:13 AM 14.0 °F 6.5 °F 6.8 °F 73% 30.11 in 10.0 mi SSW 4.6 mph - N/A   Mostly Cloudy
6:33 AM 15.8 °F 7.2 °F 8.6 °F 73% 30.10 in 10.0 mi SSW 5.8 mph - N/A   Overcast
6:53 AM 15.8 °F 6.1 °F 8.6 °F 73% 30.10 in 10.0 mi SSW 6.9 mph - N/A   Overcast
7:13 AM 17.6 °F 8.2 °F 8.6 °F 68% 30.09 in 10.0 mi SSW 6.9 mph - N/A   Overcast
7:33 AM 17.6 °F 8.2 °F 8.6 °F 68% 30.09 in 10.0 mi SSW 6.9 mph - N/A   Overcast
7:54 AM 19.4 °F 7.9 °F 8.6 °F 63% 30.09 in 10.0 mi WSW 10.4 mph - N/A   Overcast
8:34 AM 19.4 °F 8.6 °F 10.4 °F 68% 30.09 in 10.0 mi WSW 9.2 mph - N/A   Overcast
8:54 AM 19.4 °F 8.6 °F 10.4 °F 68% 30.09 in 10.0 mi WSW 9.2 mph - N/A   Overcast
9:14 AM 19.4 °F 7.9 °F 10.4 °F 68% 30.10 in 10.0 mi WSW 10.4 mph - N/A   Overcast
9:34 AM 19.4 °F 8.6 °F 12.2 °F 74% 30.10 in 10.0 mi WSW 9.2 mph - N/A   Overcast
9:54 AM 19.4 °F 8.6 °F 12.2 °F 74% 30.10 in 10.0 mi WSW 9.2 mph - N/A   Overcast
10:14 AM 21.2 °F 10.1 °F 12.2 °F 68% 30.10 in 10.0 mi WSW 10.4 mph - N/A   Overcast
10:34 AM 21.2 °F 8.9 °F 14.0 °F 74% 30.11 in 10.0 mi WSW 12.7 mph 16.1 mph N/A   Overcast
10:54 AM 23.0 °F 11.7 °F 15.8 °F 74% 30.11 in 10.0 mi WSW 11.5 mph - N/A   Overcast
11:15 AM 23.0 °F 11.7 °F 15.8 °F 74% 30.10 in 10.0 mi WSW 11.5 mph - N/A   Mostly Cloudy
11:35 AM 24.8 °F 13.4 °F 15.8 °F 69% 30.10 in 10.0 mi WSW 12.7 mph - N/A   Mostly Cloudy
11:55 AM 24.8 °F 13.4 °F 17.6 °F 74% 30.09 in 10.0 mi WSW 12.7 mph - N/A   Overcast
12:15 PM 24.8 °F 12.9 °F 17.6 °F 74% 30.09 in 10.0 mi WSW 13.8 mph - N/A   Overcast
12:35 PM 24.8 °F 13.4 °F 19.4 °F 80% 30.08 in 10.0 mi SW 12.7 mph - N/A   Overcast
12:55 PM 24.8 °F 12.9 °F 19.4 °F 80% 30.07 in 10.0 mi WSW 13.8 mph - N/A   Overcast
1:15 PM 26.6 °F 14.7 °F 19.4 °F 74% 30.07 in 10.0 mi WSW 15.0 mph - N/A   Overcast
1:35 PM 26.6 °F 15.7 °F 19.4 °F 74% 30.07 in 10.0 mi WSW 12.7 mph - N/A   Overcast
1:55 PM 26.6 °F 14.7 °F 21.2 °F 80% 30.07 in 7.0 mi WSW 15.0 mph 19.6 mph N/A   Overcast
2:15 PM 26.6 °F 15.2 °F 21.2 °F 80% 30.07 in 5.0 mi WSW 13.8 mph - N/A   Haze
2:36 PM 26.6 °F 14.3 °F 21.2 °F 80% 30.07 in 5.0 mi WSW 16.1 mph - N/A   Haze
2:51 PM 28.4 °F 18.0 °F 23.0 °F 80% 30.07 in 5.0 mi WSW 12.7 mph 19.6 mph N/A   Haze
3:11 PM 28.4 °F 16.6 °F 23.0 °F 80% 30.08 in 5.0 mi WSW 16.1 mph - N/A   Haze
3:31 PM 28.4 °F 17.5 °F 24.8 °F 86% 30.09 in 5.0 mi WSW 13.8 mph - N/A   Overcast
3:51 PM 28.4 °F 18.0 °F 24.8 °F 86% 30.09 in 5.0 mi WSW 12.7 mph - N/A   Overcast
4:11 PM 28.4 °F 18.0 °F 24.8 °F 86% 30.10 in 5.0 mi WSW 12.7 mph 19.6 mph N/A   Haze
4:31 PM 28.4 °F 16.6 °F 24.8 °F 86% 30.10 in 5.0 mi WSW 16.1 mph 23.0 mph N/A   Overcast
4:51 PM 28.4 °F 18.0 °F 24.8 °F 86% 30.11 in 4.0 mi WSW 12.7 mph - N/A   Overcast
5:11 PM 28.4 °F 17.0 °F 24.8 °F 86% 30.11 in 5.0 mi WSW 15.0 mph 19.6 mph N/A   Overcast
5:52 PM 28.4 °F 17.0 °F 26.6 °F 93% 30.12 in 7.0 mi WSW 15.0 mph - N/A   Overcast
6:12 PM 28.4 °F 16.2 °F 26.6 °F 93% 30.12 in 5.0 mi SW 17.3 mph - N/A   Overcast
6:32 PM 28.4 °F 16.6 °F 26.6 °F 93% 30.13 in 7.0 mi WSW 16.1 mph - N/A   Overcast
6:52 PM 28.4 °F 18.0 °F 26.6 °F 93% 30.14 in 7.0 mi WSW 12.7 mph 20.7 mph N/A   Overcast
7:12 PM 28.4 °F 18.0 °F 26.6 °F 93% 30.14 in 7.0 mi WSW 12.7 mph - N/A   Overcast
7:32 PM 30.2 °F 20.2 °F 26.6 °F 86% 30.14 in 7.0 mi WSW 12.7 mph - N/A   Overcast
7:52 PM 30.2 °F 20.2 °F 26.6 °F 86% 30.15 in 7.0 mi WSW 12.7 mph - N/A   Overcast
8:12 PM 30.2 °F 19.8 °F 26.6 °F 86% 30.15 in 7.0 mi WSW 13.8 mph - N/A   Overcast
8:33 PM 30.2 °F 20.2 °F 26.6 °F 86% 30.15 in 7.0 mi WSW 12.7 mph - N/A   Overcast
8:53 PM 30.2 °F 19.8 °F 26.6 °F 86% 30.15 in 7.0 mi WSW 13.8 mph - N/A   Overcast
9:13 PM 30.2 °F 19.8 °F 26.6 °F 86% 30.15 in 7.0 mi WSW 13.8 mph - N/A   Overcast
9:33 PM 30.2 °F 20.8 °F 26.6 °F 86% 30.15 in 7.0 mi WSW 11.5 mph 18.4 mph N/A   Overcast
9:53 PM 30.2 °F 20.8 °F 26.6 °F 86% 30.15 in 7.0 mi WSW 11.5 mph 17.3 mph N/A   Overcast
10:13 PM 30.2 °F 20.2 °F 26.6 °F 86% 30.15 in 7.0 mi WSW 12.7 mph 17.3 mph N/A   Overcast
10:33 PM 30.2 °F 20.8 °F 26.6 °F 86% 30.15 in 7.0 mi WSW 11.5 mph - N/A   Overcast
10:53 PM 30.2 °F 19.8 °F 26.6 °F 86% 30.16 in 7.0 mi WSW 13.8 mph - N/A   Overcast
11:13 PM 30.2 °F 20.2 °F 26.6 °F 86% 30.15 in 7.0 mi WSW 12.7 mph 19.6 mph N/A   Overcast
11:33 PM 30.2 °F 20.2 °F 26.6 °F 86% 30.15 in 7.0 mi SW 12.7 mph 19.6 mph N/A   Overcast
11:54 PM 30.2 °F 19.8 °F 24.8 °F 80% 30.15 in 10.0 mi WSW 13.8 mph 19.6 mph N/A   Overcast